When you browse on this site, cookies collect data to enhance your experience and personalize the content and advertising you see.
Visit our Privacy Policy to learn more. By continuing to use the site, you agree to this use of cookies and data.
  • In Schweiz
  • Länderverzeichnis
  • Für 7 Tage
  • Wassertemperatur
  • Wetterkarte
  • Widgets
  • user-avatar
    Anmelden

    Stündliche Wetter Birmingham

    Heute, 6 Dezember, Freitag

    Zeit Temperatur Niederschläge Wind Luftdruck Luftfeuchtigkeit
    00:00 +10°C° 0.1 mm 8 m/S 743 mmHg 88%
    01:00 +10°C° 0.2 mm 7 m/S 742 mmHg 89%
    02:00 +10°C° 0.2 mm 7 m/S 742 mmHg 89%
    03:00 +10°C° 0.2 mm 7 m/S 741 mmHg 90%
    04:00 +10°C° 0.1 mm 7 m/S 741 mmHg 90%
    05:00 +10°C° 0.1 mm 7 m/S 741 mmHg 91%
    06:00 +10°C° 0.1 mm 6 m/S 740 mmHg 92%
    07:00 +10°C° 0.2 mm 6 m/S 740 mmHg 91%
    08:00 +10°C° 0.2 mm 6 m/S 739 mmHg 90%
    09:00 +11°C° 0.2 mm 6 m/S 739 mmHg 89%
    10:00 +11°C° 0.1 mm 7 m/S 738 mmHg 85%
    11:00 +10°C° 0.1 mm 7 m/S 738 mmHg 82%
    12:00 +10°C° 0.1 mm 7 m/S 737 mmHg 78%
    13:00 +10°C° 0.5 mm 7 m/S 737 mmHg 78%
    14:00 +9°C° 0.5 mm 8 m/S 737 mmHg 78%
    15:00 +7°C° 0.5 mm 9 m/S 737 mmHg 77%
    16:00 +7°C° 0 mm 8 m/S 738 mmHg 79%
    17:00 +6°C° 0 mm 7 m/S 739 mmHg 80%
    18:00 +7°C° 0 mm 6 m/S 739 mmHg 82%
    19:00 +7°C° 0 mm 5 m/S 740 mmHg 83%
    20:00 +6°C° 0 mm 5 m/S 741 mmHg 84%
    21:00 +6°C° 0 mm 5 m/S 742 mmHg 85%
    22:00 +6°C° 0 mm 5 m/S 742 mmHg 86%
    23:00 +6°C° 0 mm 5 m/S 743 mmHg 86%

    Morgen, 7 Dezember, Samstag

    Zeit Temperatur Niederschläge Wind Luftdruck Luftfeuchtigkeit
    00:00 +6°C° 0 mm 5 m/S 743 mmHg 87%
    01:00 +6°C° 0 mm 4 m/S 744 mmHg 87%
    02:00 +5°C° 0 mm 4 m/S 744 mmHg 87%
    03:00 +5°C° 0 mm 4 m/S 744 mmHg 87%
    04:00 +5°C° 0 mm 4 m/S 744 mmHg 87%
    05:00 +5°C° 0 mm 4 m/S 745 mmHg 87%
    06:00 +5°C° 0 mm 4 m/S 745 mmHg 87%
    07:00 +5°C° 0 mm 4 m/S 745 mmHg 87%
    08:00 +6°C° 0 mm 4 m/S 746 mmHg 87%
    09:00 +6°C° 0 mm 4 m/S 746 mmHg 87%
    10:00 +6°C° 0 mm 5 m/S 746 mmHg 84%
    11:00 +7°C° 0 mm 5 m/S 746 mmHg 82%
    12:00 +8°C° 0 mm 5 m/S 746 mmHg 80%
    13:00 +8°C° 0 mm 5 m/S 746 mmHg 82%
    14:00 +7°C° 0 mm 4 m/S 745 mmHg 83%
    15:00 +7°C° 0 mm 4 m/S 745 mmHg 85%
    16:00 +7°C° 0 mm 4 m/S 744 mmHg 86%
    17:00 +7°C° 0 mm 5 m/S 744 mmHg 87%
    18:00 +7°C° 0 mm 6 m/S 744 mmHg 89%
    19:00 +6°C° 0 mm 7 m/S 743 mmHg 88%
    20:00 +6°C° 0 mm 8 m/S 742 mmHg 88%
    21:00 +6°C° 0 mm 9 m/S 741 mmHg 87%
    22:00 +7°C° 0.4 mm 9 m/S 740 mmHg 88%
    23:00 +7°C° 0.4 mm 10 m/S 738 mmHg 88%

    übermorgen, 8 Dezember, Sonntag

    Zeit Temperatur Niederschläge Wind Luftdruck Luftfeuchtigkeit
    00:00 +8°C° 0.4 mm 11 m/S 737 mmHg 88%
    01:00 +8°C° 0.3 mm 10 m/S 737 mmHg 87%
    02:00 +10°C° 0.3 mm 9 m/S 736 mmHg 86%
    03:00 +11°C° 0.3 mm 8 m/S 736 mmHg 85%
    04:00 +9°C° 0 mm 7 m/S 736 mmHg 82%
    05:00 +6°C° 0 mm 7 m/S 737 mmHg 79%
    06:00 +5°C° 0 mm 6 m/S 737 mmHg 77%
    07:00 +4°C° 0 mm 6 m/S 737 mmHg 77%
    08:00 +4°C° 0 mm 7 m/S 737 mmHg 78%
    09:00 +4°C° 0 mm 7 m/S 737 mmHg 79%
    10:00 +5°C° 0.1 mm 8 m/S 737 mmHg 76%
    11:00 +5°C° 0.1 mm 9 m/S 737 mmHg 73%
    12:00 +6°C° 0.1 mm 10 m/S 736 mmHg 71%
    13:00 +5°C° 0.1 mm 9 m/S 736 mmHg 70%
    14:00 +5°C° 0.1 mm 9 m/S 735 mmHg 70%
    15:00 +5°C° 0.1 mm 9 m/S 735 mmHg 70%
    16:00 +3°C° 0 mm 9 m/S 734 mmHg 71%
    17:00 +3°C° 0 mm 9 m/S 734 mmHg 73%
    18:00 +2°C° 0 mm 9 m/S 734 mmHg 75%
    19:00 +3°C° 0.1 mm 10 m/S 733 mmHg 76%
    20:00 +3°C° 0.1 mm 11 m/S 732 mmHg 77%
    21:00 +3°C° 0.1 mm 12 m/S 731 mmHg 78%
    22:00 +3°C° 0.2 mm 12 m/S 731 mmHg 77%
    23:00 +4°C° 0.2 mm 11 m/S 730 mmHg 77%

    9 Dezember, Montag

    Zeit Temperatur Niederschläge Wind Luftdruck Luftfeuchtigkeit
    00:00 +4°C° 0.2 mm 11 m/S 730 mmHg 76%
    01:00 +4°C° 0.5 mm 11 m/S 731 mmHg 77%
    02:00 +4°C° 0.5 mm 12 m/S 731 mmHg 78%
    03:00 +3°C° 0.5 mm 12 m/S 732 mmHg 79%
    04:00 +3°C° 0.1 mm 13 m/S 733 mmHg 77%
    05:00 +4°C° 0.1 mm 14 m/S 733 mmHg 75%
    06:00 +4°C° 0.1 mm 14 m/S 734 mmHg 73%
    07:00 +4°C° 0 mm 13 m/S 736 mmHg 71%
    08:00 +4°C° 0 mm 13 m/S 739 mmHg 68%
    09:00 +5°C° 0 mm 12 m/S 741 mmHg 65%
    10:00 +6°C° 0 mm 11 m/S 742 mmHg 64%
    11:00 +6°C° 0 mm 11 m/S 744 mmHg 63%
    12:00 +6°C° 0 mm 10 m/S 745 mmHg 61%
    13:00 +5°C° 0 mm 9 m/S 746 mmHg 64%
    14:00 +5°C° 0 mm 7 m/S 747 mmHg 66%
    15:00 +5°C° 0 mm 6 m/S 748 mmHg 68%
    16:00 +5°C° 0 mm 5 m/S 749 mmHg 71%
    17:00 +4°C° 0 mm 4 m/S 749 mmHg 75%
    18:00 +4°C° 0 mm 4 m/S 750 mmHg 78%
    19:00 +4°C° 0 mm 3 m/S 750 mmHg 81%
    20:00 +3°C° 0 mm 3 m/S 750 mmHg 83%
    21:00 +3°C° 0 mm 3 m/S 751 mmHg 86%
    22:00 +3°C° 0 mm 3 m/S 750 mmHg 87%
    23:00 +3°C° 0 mm 3 m/S 750 mmHg 88%

    10 Dezember, Dienstag

    Zeit Temperatur Niederschläge Wind Luftdruck Luftfeuchtigkeit
    00:00 +4°C° 0 mm 4 m/S 749 mmHg 89%
    01:00 +3°C° 0.1 mm 5 m/S 748 mmHg 89%
    02:00 +4°C° 0.1 mm 6 m/S 747 mmHg 89%
    03:00 +5°C° 0.1 mm 7 m/S 746 mmHg 89%
    04:00 +5°C° 1.2 mm 8 m/S 744 mmHg 90%
    05:00 +5°C° 1.2 mm 8 m/S 742 mmHg 90%
    06:00 +6°C° 1.2 mm 9 m/S 740 mmHg 91%
    07:00 +7°C° 1.1 mm 9 m/S 739 mmHg 91%
    08:00 +8°C° 1.1 mm 9 m/S 737 mmHg 92%
    09:00 +10°C° 1.1 mm 9 m/S 736 mmHg 93%
    10:00 +10°C° 0.2 mm 9 m/S 735 mmHg 91%
    11:00 +11°C° 0.2 mm 9 m/S 734 mmHg 90%
    12:00 +11°C° 0.2 mm 9 m/S 733 mmHg 88%
    13:00 +12°C° 0.2 mm 10 m/S 732 mmHg 86%
    14:00 +12°C° 0.2 mm 11 m/S 731 mmHg 84%
    15:00 +12°C° 0.2 mm 12 m/S 730 mmHg 82%
    16:00 +9°C° 0.5 mm 12 m/S 730 mmHg 82%
    17:00 +7°C° 0.5 mm 11 m/S 731 mmHg 81%
    18:00 +6°C° 0.5 mm 11 m/S 731 mmHg 81%
    19:00 +5°C° 0.1 mm 10 m/S 732 mmHg 77%
    20:00 +3°C° 0.1 mm 9 m/S 734 mmHg 74%
    21:00 +2°C° 0.1 mm 8 m/S 735 mmHg 70%
    22:00 +2°C° 0 mm 8 m/S 735 mmHg 70%
    23:00 +2°C° 0 mm 8 m/S 736 mmHg 69%

    11 Dezember, Mittwoch

    Zeit Temperatur Niederschläge Wind Luftdruck Luftfeuchtigkeit
    00:00 +2°C° 0 mm 7 m/S 736 mmHg 69%
    01:00 +2°C° 0 mm 7 m/S 736 mmHg 69%
    02:00 +2°C° 0 mm 7 m/S 735 mmHg 70%
    03:00 +2°C° 0 mm 7 m/S 735 mmHg 71%
    04:00 +1°C° 0.1 mm 8 m/S 734 mmHg 74%
    05:00 +1°C° 0.1 mm 8 m/S 734 mmHg 77%
    06:00 +1°C° 0.1 mm 8 m/S 733 mmHg 81%
    07:00 +1°C° 0.1 mm 8 m/S 733 mmHg 80%
    08:00 +2°C° 0.1 mm 7 m/S 732 mmHg 79%
    09:00 +2°C° 0.1 mm 7 m/S 732 mmHg 78%
    10:00 +2°C° 0.1 mm 8 m/S 731 mmHg 73%
    11:00 +2°C° 0.1 mm 8 m/S 731 mmHg 69%
    12:00 +2°C° 0.1 mm 9 m/S 730 mmHg 64%
    13:00 +2°C° 0 mm 9 m/S 729 mmHg 64%
    14:00 +2°C° 0 mm 9 m/S 729 mmHg 64%
    15:00 +2°C° 0 mm 9 m/S 728 mmHg 65%
    16:00 +1°C° 0.1 mm 9 m/S 728 mmHg 69%
    17:00 +1°C° 0.1 mm 10 m/S 727 mmHg 73%
    18:00 0°C° 0.1 mm 10 m/S 727 mmHg 77%
    19:00 +1°C° 0.1 mm 10 m/S 727 mmHg 74%
    20:00 +1°C° 0.1 mm 9 m/S 727 mmHg 72%
    21:00 +1°C° 0.1 mm 9 m/S 727 mmHg 69%
    22:00 +1°C° 0 mm 9 m/S 727 mmHg 70%
    23:00 +1°C° 0 mm 9 m/S 727 mmHg 70%
    Mehr zeigen